Change the Weather History Date:

Monday, August 26, 2013

  Actual Average Record
Temperature  
Mean Temperature 74 °F 67 °F  
Max Temperature 85 °F 82 °F 93 °F (2010)
Min Temperature 63 °F 52 °F 44 °F (2004)
Degree Days  
Heating Degree Days 0 1  
Month to date heating degree days 0 16  
Since 1 June heating degree days 52 147  
Since 1 July heating degree days 0 28  
Cooling Degree Days 9 3  
Month to date cooling degree days 226 159  
Year to date cooling degree days 683 454  
Since 1 June cooling degree days 670 445  
Growing Degree Days 24 (Base 50)    
Moisture  
Dew Point 45 °F    
Average Humidity 41    
Maximum Humidity 60    
Minimum Humidity 22    
Precipitation  
Precipitation T in 0.01 in 0.12 in (2006)
Month to date precipitation 0.02 0.47  
Year to date precipitation 4.05 6.72  
Snow  
Snow 0.00 in - - ()
Month to date snowfall 0.0  
Since 1 June snowfall 0.0  
Since 1 July snowfall 0.0  
Snow Depth 0.00 in    
Sea Level Pressure  
Sea Level Pressure 29.95 in    
Wind  
Wind Speed 9 mph (WSW)    
Max Wind Speed 28 mph    
Max Gust Speed 32 mph    
Visibility 10 miles    
Events      
T = Trace of Precipitation, MM = Missing Value Source: NWS Daily Summary

Daily Weather History Graph

Daily Weather History Graph

Search for Another Location

Airport or City:

Trip Planner

Search our weather history database for the weather conditions in past years. The results will help you decide how hot, cold, wet, or windy it might be!

Date:

Astronomy

Aug. 26, 2013 Rise Set
Actual Time 6:31 AM MDT 7:58 PM MDT
Civil Twilight 6:02 AM MDT 8:27 PM MDT
Nautical Twilight 5:26 AM MDT 9:03 PM MDT
Astronomical Twilight 4:48 AM MDT 9:41 PM MDT
Moon 10:59 PM MDT (8/26) 12:47 PM MDT (8/26)
Length of Visible Light 14h 25m
Length of Day
13h 26m
Waning Gibbous, 66% of the Moon is Illuminated
Aug 26
Waning Gibbous
Aug 28
Last Quarter
Sep 5
New
Sep 12
First Quarter
Sep 19
Full

Hourly Weather History & Observations

Time (MDT) Temp. Dew Point Humidity Pressure Visibility Wind Dir Wind Speed Gust Speed Precip Events Conditions
12:53 AM 71.1 °F 41.0 °F 34% 29.90 in 10.0 mi South 12.7 mph - N/A   Clear
1:53 AM 69.1 °F 43.0 °F 39% 29.89 in 10.0 mi South 8.1 mph - N/A   Clear
2:53 AM 66.9 °F 43.0 °F 42% 29.89 in 10.0 mi South 9.2 mph - N/A   Clear
3:53 AM 66.9 °F 46.9 °F 49% 29.89 in 10.0 mi South 11.5 mph - N/A   Clear
4:53 AM 66.0 °F 46.9 °F 50% 29.91 in 10.0 mi South 9.2 mph - N/A   Clear
5:53 AM 66.0 °F 48.0 °F 52% 29.92 in 10.0 mi South 10.4 mph - N/A   Clear
6:53 AM 63.0 °F 48.0 °F 58% 29.95 in 10.0 mi South 4.6 mph - N/A   Clear
7:53 AM 64.9 °F 46.9 °F 52% 29.96 in 10.0 mi NW 5.8 mph - N/A   Clear
8:53 AM 68.0 °F 46.9 °F 47% 29.99 in 10.0 mi NNW 8.1 mph - N/A   Clear
9:53 AM - - N/A% 30.21 in - North - - N/A   Unknown
10:53 AM 75.0 °F 45.0 °F 34% 30.00 in 10.0 mi Variable 4.6 mph - N/A   Partly Cloudy
11:53 AM 80.1 °F 46.0 °F 30% 29.98 in 10.0 mi NNW 5.8 mph - N/A   Clear
12:53 PM 82.9 °F 46.9 °F 28% 29.95 in 10.0 mi ESE 8.1 mph - N/A   Clear
1:53 PM 82.9 °F 43.0 °F 24% 29.94 in 10.0 mi ESE 11.5 mph 19.6 mph N/A   Clear
2:53 PM 84.0 °F 41.0 °F 22% 29.93 in 10.0 mi SE 5.8 mph - N/A   Scattered Clouds
3:53 PM 84.0 °F 41.0 °F 22% 29.91 in 10.0 mi Calm Calm - N/A   Overcast
4:53 PM 82.0 °F 41.0 °F 23% 29.91 in 10.0 mi Calm Calm - N/A   Overcast
5:53 PM 82.0 °F 41.0 °F 23% 29.91 in 10.0 mi Calm Calm - N/A   Mostly Cloudy
6:53 PM 81.0 °F 42.1 °F 25% 29.92 in 10.0 mi West 4.6 mph - N/A   Overcast
7:53 PM 73.9 °F 46.9 °F 38% 29.94 in 10.0 mi NW 21.9 mph 29.9 mph N/A   Overcast
8:53 PM 70.0 °F 48.0 °F 46% 29.96 in 10.0 mi NW 20.7 mph - 0.00 in   Overcast
9:53 PM 70.0 °F 46.0 °F 42% 30.15 in 10.0 mi NW 17.3 mph - N/A   Overcast
10:53 PM 68.0 °F 46.9 °F 47% 29.96 in 10.0 mi NW 17.3 mph - N/A   Overcast
11:53 PM 66.9 °F 48.0 °F 51% 29.95 in 10.0 mi NW 13.8 mph - N/A   Mostly Cloudy